Hourly Data Report for May 23, 2021

CARIBOU POINT (AUT)
NOVA SCOTIA
Current Station Operator: ECCC - MSC

45°46'00.000" N
62°41'00.000" W
2.40 m
8200774
71415
WBK

Download Data

Hourly Data (May 2021)
Hourly Data Report for May 23, 2021
TIME
LST
Temp Definition
°C
Dew Point Definition
°C
Rel Hum Definition
%
Precip. Amount Definition
mm

Wind Dir Definition
10's deg

Wind Spd Definition
km/h
Visibility Definition
km
Stn Press Definition
kPa
Hmdx Definition


Wind Chill Definition


Weather Definition


00:00 13.3 8.0 70 0.0 22 16   100.88     LegendNANA
01:00 12.9 8.0 72 0.0 23 14   100.79     LegendNANA
02:00 12.6 7.9 73 0.0 22 13   100.69     LegendNANA
03:00 12.2 7.9 75 0.0 22 11   100.64     LegendNANA
04:00 11.7 7.9 78 0.0 22 11   100.55     LegendNANA
05:00 11.5 8.0 79 0.0 21 12   100.45     LegendNANA
06:00 12.9 8.9 76 0.0 22 14   100.44     LegendNANA
07:00 14.2 10.2 77 0.0 21 8   100.39     LegendNANA
08:00 16.0 12.0 77 0.0 21 8   100.39     LegendNANA
09:00 14.9 10.9 77 0.0 33 7   100.35     LegendNANA
10:00 13.4 11.1 86 0.0 2 6   100.28     LegendNANA
11:00 14.5 12.1 86 0.0 31 2   100.16     LegendNANA
12:00 18.4 13.9 75 0.0 22 8   100.12     LegendNANA
13:00 14.1 12.8 92 0.3 31 6   100.13     LegendNANA
14:00 12.8 12.4 97 3.8 31 18   100.12     LegendNANA
15:00 11.9 11.4 97 4.8 34 31   100.11     LegendNANA
16:00 10.3 9.6 95 2.7 33 33   100.30     LegendNANA
17:00 8.1 7.1 94 4.0 36 28   100.58     LegendNANA
18:00 7.5 6.1 91 1.2 36 35   100.80     LegendNANA
19:00 7.2 5.2 87 0.0 36 40   100.87     LegendNANA
20:00 7.2 4.8 85 0.0 36 39   101.03     LegendNANA
21:00 6.9 3.9 81 0.0 36 41   101.20     LegendNANA
22:00 6.7 3.8 82 0.0 36 36   101.32     LegendNANA
23:00 6.6 4.3 85 0.0 36 27   101.41     LegendNANA

Notes on Data Quality.

Legend

  • E = Estimated
  • M = Missing
  • NA = Not Available*
  • [empty] = Indicates an unobserved value
Date modified: